Retour au catalogue

DELTA 1 DEB

ActifUNKNOWN
NORAD 7025·DEBRIS·🇺🇸 United States

Lancé Nov 6, 1973 depuis Vandenberg Space Force Base

Loading…

Prochains Passages (prochaines 24 heures)

TLE

FraisSource: Space-Track

Époque: Sep 14, 2026, 09:34 UTC

1 07025U 73086R   26257.39884546 -.00000025  00000-0  12612-3 0  9990
2 07025 101.9128 226.5069 0463146  44.5804 123.4280 11.54280268227500

Suivez DELTA 1 DEB en temps réel avec AllMySat

Download on the App Store